Weather History for Bellaire, MI

Change the Weather History Date:

Tuesday, November 13, 2012

  Actual Average (KTVC) Record (KTVC)
Temperature  
Mean Temperature 30 °F 38 °F  
Max Temperature 37 °F 45 °F 74 °F (2013)
Min Temperature 24 °F 31 °F 11 °F (1911)
Degree Days  
Heating Degree Days 34 27  
Month to date heating degree days 318  
Since 1 July heating degree days 1105  
Moisture  
Dew Point 22 °F    
Average Humidity 68    
Maximum Humidity 90    
Minimum Humidity 51    
Precipitation  
Precipitation 0.00 in 0.09 in 1.22 in (1937)
Month to date precipitation 1.20  
Year to date precipitation 29.06  
Sea Level Pressure  
Sea Level Pressure 30.35 in    
Wind  
Wind Speed 6 mph (SW)    
Max Wind Speed 12 mph    
Max Gust Speed 17 mph    
Visibility 10 miles    
Events Snow    
T = Trace of Precipitation, MM = Missing Value Source: NWS Daily Summary

Daily Weather History Graph

Daily Weather History Graph

Search for Another Location

Airport:

Trip Planner

Search our weather history database for the weather conditions in past years. The results will help you decide how hot, cold, wet, or windy it might be!

Date:

Astronomy

Nov. 13, 2012 Rise Set
Actual Time 7:36 AM EST 5:13 PM EST
Civil Twilight 7:04 AM EST 5:45 PM EST
Nautical Twilight 6:29 AM EST 6:20 PM EST
Astronomical Twilight 5:54 AM EST 6:55 PM EST
Moon 7:14 AM EST (11/13) 5:04 PM EST (11/13)
Length of Visible Light 10h 40m
Length of Day
9h 37m
Waning Crescent, 0% of the Moon is Illuminated
Nov 13
Waning Crescent
Nov 13
New
Nov 20
First Quarter
Nov 28
Full
Dec 6
Last Quarter

Hourly Weather History & Observations

Time (EST) Temp. Windchill Dew Point Humidity Pressure Visibility Wind Dir Wind Speed Gust Speed Precip Events Conditions
12:15 AM 31.1 °F 23.1 °F 16.9 °F 56% 30.15 in 10.0 mi West 9.2 mph - N/A   Overcast
12:35 AM 31.1 °F 24.5 °F 15.3 °F 52% 30.16 in 10.0 mi West 6.9 mph - N/A   Overcast
12:55 AM 31.1 °F 24.5 °F 18.1 °F 59% 30.16 in 10.0 mi WSW 6.9 mph 16.1 mph N/A Snow Light Snow
1:15 AM 30.9 °F 23.5 °F 19.6 °F 63% 30.17 in 10.0 mi WSW 8.1 mph - N/A   Overcast
1:35 AM 31.5 °F 23.5 °F 16.5 °F 54% 30.18 in 10.0 mi West 9.2 mph 17.3 mph N/A   Overcast
1:55 AM 31.5 °F 24.9 °F 16.9 °F 55% 30.18 in 10.0 mi WSW 6.9 mph - N/A   Overcast
2:15 AM 31.1 °F 24.5 °F 19.4 °F 62% 30.19 in 10.0 mi SW 6.9 mph - N/A   Overcast
2:35 AM 31.1 °F 23.1 °F 19.8 °F 63% 30.19 in 7.0 mi SW 9.2 mph - N/A Snow Light Snow
2:54 AM 31.5 °F 24.9 °F 19.2 °F 61% 30.20 in 10.0 mi SW 6.9 mph - N/A   Overcast
3:15 AM 31.8 °F 23.9 °F 19.0 °F 59% 30.20 in 10.0 mi SW 9.2 mph - N/A   Overcast
3:35 AM 32.0 °F 26.4 °F 18.5 °F 58% 30.21 in 10.0 mi SW 5.8 mph 16.1 mph N/A   Overcast
3:54 AM 32.0 °F 25.6 °F 18.9 °F 58% 30.21 in 10.0 mi SW 6.9 mph - N/A   Overcast
4:15 AM 32.0 °F 23.6 °F 19.2 °F 59% 30.22 in 10.0 mi SW 10.4 mph 17.3 mph N/A   Overcast
4:35 AM 32.0 °F 24.8 °F 19.4 °F 60% 30.22 in 10.0 mi SW 8.1 mph - N/A   Overcast
4:55 AM 32.0 °F 24.2 °F 19.9 °F 61% 30.23 in 10.0 mi SW 9.2 mph 17.3 mph N/A   Overcast
5:15 AM 32.0 °F 27.5 °F 20.7 °F 63% 30.24 in 10.0 mi WSW 4.6 mph - N/A   Overcast
5:35 AM 32.0 °F 24.2 °F 21.2 °F 64% 30.25 in 10.0 mi SW 9.2 mph 16.1 mph N/A   Overcast
5:55 AM 32.2 °F 25.0 °F 21.7 °F 65% 30.26 in 10.0 mi SW 8.1 mph - N/A   Overcast
6:15 AM 32.2 °F 25.0 °F 22.5 °F 67% 30.26 in 10.0 mi SW 8.1 mph - N/A   Overcast
6:35 AM 32.2 °F 25.0 °F 23.0 °F 69% 30.27 in 10.0 mi SW 8.1 mph - N/A   Overcast
7:15 AM 32.5 °F 29.3 °F 24.3 °F 72% 30.29 in 10.0 mi WSW 3.5 mph - N/A   Overcast
7:35 AM 32.9 °F 26.7 °F 24.1 °F 70% 30.30 in 10.0 mi SW 6.9 mph - N/A   Overcast
7:55 AM 32.9 °F 26.7 °F 24.4 °F 71% 30.31 in 10.0 mi SW 6.9 mph - N/A   Overcast
8:15 AM 32.7 °F 28.3 °F 25.2 °F 74% 30.32 in 7.0 mi SW 4.6 mph - N/A   Overcast
8:34 AM 32.7 °F 27.3 °F 25.7 °F 75% 30.33 in 7.0 mi SW 5.8 mph - N/A   Overcast
8:55 AM 33.3 °F 30.2 °F 25.7 °F 74% 30.34 in 10.0 mi WSW 3.5 mph - N/A   Overcast
9:15 AM 33.3 °F 27.1 °F 25.7 °F 74% 30.35 in 10.0 mi SW 6.9 mph - N/A   Overcast
9:35 AM 33.3 °F 27.9 °F 25.9 °F 74% 30.35 in 7.0 mi WSW 5.8 mph - N/A   Overcast
9:55 AM 33.6 °F 27.5 °F 25.5 °F 72% 30.36 in 10.0 mi WSW 6.9 mph - N/A   Overcast
10:15 AM 34.0 °F 27.2 °F 25.3 °F 71% 30.36 in 10.0 mi SW 8.1 mph 16.1 mph N/A   Overcast
10:35 AM 34.5 °F 26.2 °F 26.1 °F 71% 30.37 in 10.0 mi SW 11.5 mph - N/A   Overcast
10:55 AM 34.7 °F 29.6 °F 25.7 °F 70% 30.38 in 10.0 mi West 5.8 mph - N/A   Overcast
11:15 AM 34.7 °F 28.8 °F 25.0 °F 68% 30.39 in 10.0 mi WSW 6.9 mph 16.1 mph N/A   Overcast
11:35 AM 34.7 °F 26.9 °F 25.3 °F 69% 30.40 in 10.0 mi WSW 10.4 mph 16.1 mph N/A   Overcast
11:55 AM 34.3 °F 28.4 °F 25.7 °F 71% 30.39 in 10.0 mi SW 6.9 mph - N/A   Overcast
12:15 PM 34.7 °F 28.1 °F 25.3 °F 69% 30.40 in 10.0 mi WSW 8.1 mph - N/A   Overcast
12:35 PM 34.7 °F 29.6 °F 25.0 °F 68% 30.39 in 10.0 mi WSW 5.8 mph - N/A   Overcast
12:56 PM 34.7 °F 28.8 °F 23.9 °F 65% 30.39 in 10.0 mi SW 6.9 mph - N/A   Overcast
1:15 PM 35.1 °F 29.3 °F 23.7 °F 63% 30.40 in 10.0 mi SSW 6.9 mph - N/A   Overcast
1:55 PM 35.6 °F 31.7 °F 23.9 °F 62% 30.40 in 10.0 mi SW 4.6 mph - N/A   Overcast
2:15 PM 37.4 °F 34.9 °F 23.5 °F 57% 30.40 in 10.0 mi SSW 3.5 mph - N/A   Overcast
2:35 PM 36.9 °F 32.2 °F 21.7 °F 54% 30.40 in 10.0 mi SSW 5.8 mph - N/A   Scattered Clouds
2:55 PM 37.6 °F 34.0 °F 21.0 °F 51% 30.40 in 10.0 mi SW 4.6 mph - N/A   Mostly Cloudy
3:15 PM 37.6 °F 31.6 °F 21.9 °F 53% 30.40 in 10.0 mi South 8.1 mph - N/A   Mostly Cloudy
3:35 PM 37.4 °F 32.8 °F 21.4 °F 52% 30.41 in 10.0 mi SSW 5.8 mph - N/A   Mostly Cloudy
3:55 PM 37.0 °F 34.5 °F 21.2 °F 53% 30.41 in 10.0 mi SSW 3.5 mph - N/A   Mostly Cloudy
4:15 PM 36.5 °F 32.7 °F 20.3 °F 52% 30.41 in 10.0 mi SSW 4.6 mph - N/A   Mostly Cloudy
4:35 PM 36.5 °F 33.9 °F 21.2 °F 54% 30.42 in 10.0 mi SSW 3.5 mph - N/A   Mostly Cloudy
4:55 PM 35.6 °F 29.9 °F 21.4 °F 56% 30.42 in 10.0 mi South 6.9 mph - N/A   Scattered Clouds
5:15 PM 35.1 °F 32.2 °F 21.2 °F 57% 30.42 in 10.0 mi South 3.5 mph - N/A   Clear
5:36 PM 32.7 °F 28.3 °F 21.4 °F 63% 30.43 in 10.0 mi South 4.6 mph - N/A   Clear
5:55 PM 32.0 °F 27.5 °F 21.7 °F 66% 30.43 in 10.0 mi SSE 4.6 mph - N/A   Clear
6:15 PM 32.0 °F - 21.6 °F 65% 30.44 in 10.0 mi Calm Calm - N/A   Clear
6:36 PM 30.2 °F - 22.5 °F 73% 30.45 in 10.0 mi Calm Calm - N/A   Clear
6:55 PM 28.6 °F - 22.8 °F 79% 30.45 in 10.0 mi Calm Calm - N/A   Clear
7:15 PM 28.0 °F - 23.0 °F 81% 30.45 in 10.0 mi Calm Calm - N/A   Clear
7:35 PM 27.3 °F - 23.0 °F 84% 30.45 in 10.0 mi Calm Calm - N/A   Clear
7:55 PM 27.5 °F - 22.8 °F 83% 30.45 in 10.0 mi Calm Calm - N/A   Clear
8:15 PM 27.1 °F - 23.0 °F 84% 30.46 in 10.0 mi Calm Calm - N/A   Clear
8:35 PM 26.6 °F - 22.6 °F 85% 30.46 in 10.0 mi Calm Calm - N/A   Clear
8:55 PM 26.2 °F - 22.8 °F 87% 30.46 in 10.0 mi Calm Calm - N/A   Clear
9:16 PM 25.9 °F - 22.6 °F 88% 30.47 in 10.0 mi Calm Calm - N/A   Clear
9:35 PM 25.5 °F - 22.1 °F 87% 30.47 in 10.0 mi Calm Calm - N/A   Clear
9:55 PM 25.3 °F - 22.1 °F 87% 30.47 in 10.0 mi Calm Calm - N/A   Clear
10:16 PM 24.6 °F - 21.7 °F 89% 30.48 in 10.0 mi Calm Calm - N/A   Clear
10:35 PM 25.2 °F - 22.3 °F 89% 30.48 in 10.0 mi Calm Calm - N/A   Clear
10:55 PM 24.8 °F - 22.1 °F 89% 30.48 in 10.0 mi Calm Calm - N/A   Clear
11:14 PM 24.1 °F - 21.2 °F 89% 30.48 in 10.0 mi Calm Calm - N/A   Clear
11:35 PM 25.2 °F - 22.6 °F 90% 30.48 in 10.0 mi Calm Calm - N/A   Clear
11:55 PM 24.1 °F - 20.3 °F 85% 30.48 in 10.0 mi Calm Calm - N/A   Clear